FW8433 Weather Reports


Display with metric or nautical units.
time (UTC)temp
F
wind
direction
speed
MPH
gust
MPH
rain 1hr
in
rain 24hr
in
rain mn
in
humidity
%
barometer
mb
20260504185049 77 211 8.0 15.0 0.00 0.00 0.00 52 1014.7
20260504184555 78 199 6.0 17.0 0.00 0.00 0.00 56 1014.8
20260504184049 76 199 8.0 20.0 0.00 0.00 0.00 52 1014.7
20260504183552 77 244 10.0 20.0 0.00 0.00 0.00 51 1014.8
20260504183050 76 182 7.0 16.0 0.00 0.00 0.00 51 1014.9
20260504182552 76 207 8.0 16.0 0.00 0.00 0.00 54 1015.0
20260504182052 76 184 4.0 19.0 0.00 0.00 0.00 53 1015.1
20260504181559 77 204 4.0 19.0 0.00 0.00 0.00 50 1015.2
20260504181052 76 234 7.0 18.0 0.00 0.00 0.00 53 1015.2
20260504180552 76 208 7.0 16.0 0.00 0.00 0.00 52 1015.3
20260504180103 77 221 6.0 17.0 0.00 0.00 0.00 53 1015.4
20260504175551 75 147 5.0 17.0 0.00 0.00 0.00 53 1015.3
20260504175052 77 229 7.0 16.0 0.00 0.00 0.00 52 1015.5
20260504174557 77 177 7.0 13.0 0.00 0.00 0.00 48 1015.5
20260504174052 77 217 7.0 13.0 0.00 0.00 0.00 55 1015.6
20260504173552 78 201 4.0 15.0 0.00 0.00 0.00 58 1015.7
20260504173053 77 204 6.0 15.0 0.00 0.00 0.00 53 1015.7
20260504172551 77 186 6.0 16.0 0.00 0.00 0.00 55 1015.9
20260504172051 76 171 9.0 16.0 0.00 0.00 0.00 53 1015.8
20260504171559 77 209 3.0 13.0 0.00 0.00 0.00 57 1015.9
20260504171050 76 264 6.0 16.0 0.00 0.00 0.00 55 1016.0
20260504170552 75 184 7.0 15.0 0.00 0.00 0.00 55 1015.9
20260504151052 72 192 7.0 15.0 0.00 0.00 0.00 59 1016.5
20260504150551 71 194 7.0 15.0 0.00 0.00 0.00 61 1016.4
20260504150109 71 205 6.0 14.0 0.00 0.00 0.00 60 1016.5
20260504141051 68 234 2.0 9.0 0.00 0.00 0.00 65 1016.9
20260504140551 68 185 3.0 10.0 0.00 0.00 0.00 67 1016.8
20260504130552 62 194 5.0 9.0 0.00 0.00 0.00 74 1016.6
20260504110552 59 228 2.0 5.0 0.00 0.00 0.00 78 1015.9
20260504100552 60 194 3.0 8.0 0.00 0.00 0.00 76 1015.7
20260504081556 59 179 3.0 5.0 0.00 0.00 0.00 80 1016.1
20260504081050 59 180 2.0 5.0 0.00 0.00 0.00 80 1016.1
20260504080550 59 186 2.0 5.0 0.00 0.00 0.00 81 1016.2
20260504080114 59 196 1.0 5.0 0.00 0.00 0.00 81 1016.2
20260504050553 62 180 1.0 4.0 0.00 0.00 0.00 79 1017.3
20260504045552 62 175 1.0 4.0 0.00 0.00 0.00 79 1017.3
20260504045052 62 217 2.0 4.0 0.00 0.00 0.00 79 1017.4
20260504044555 62 181 1.0 4.0 0.00 0.00 0.00 79 1017.4
20260504044052 62 153 0.0 5.0 0.00 0.00 0.00 80 1017.4
20260504043552 62 153 1.0 5.0 0.00 0.00 0.00 80 1017.5
20260504043112 62 176 2.0 5.0 0.00 0.00 0.00 80 1017.5
20260504042550 62 176 1.0 3.0 0.00 0.00 0.00 81 1017.4
20260504042049 62 176 0.0 3.0 0.00 0.00 0.00 81 1017.4
20260504041550 62 202 1.0 4.0 0.00 0.00 0.00 81 1017.5
20260504041049 62 0 0.0 4.0 0.00 0.00 0.00 81 1017.5
20260504040553 62 183 1.0 3.0 0.00 0.00 0.00 81 1017.5
20260504040114 62 200 1.0 3.0 0.00 0.00 0.00 81 1017.5
20260504035551 62 0 0.0 3.0 0.00 0.00 0.00 80 1017.5
20260504035050 62 0 0.0 3.0 0.00 0.00 0.00 80 1017.5
20260504034556 62 200 1.0 3.0 0.00 0.00 0.00 80 1017.5
20260504034049 62 0 0.0 2.0 0.00 0.00 0.00 80 1017.5
20260504033549 62 0 0.0 3.0 0.00 0.00 0.00 80 1017.6
20260504033056 62 0 0.0 3.0 0.00 0.00 0.00 79 1017.6
20260504032550 62 200 0.0 3.0 0.00 0.00 0.00 79 1017.5
20260504032050 63 200 0.0 3.0 0.00 0.00 0.00 79 1017.5
20260504031559 63 0 0.0 3.0 0.00 0.00 0.00 79 1017.3
20260504031049 63 0 0.0 3.0 0.00 0.00 0.00 79 1017.4
20260504030549 63 0 0.0 0.0 0.00 0.00 0.00 79 1017.4
20260504030053 63 0 0.0 0.0 0.00 0.00 0.00 79 1017.4
20260504025549 63 0 0.0 0.0 0.00 0.00 0.00 78 1017.4
20260504025050 64 0 0.0 1.0 0.00 0.00 0.00 78 1017.3
20260504024554 64 0 0.0 1.0 0.00 0.00 0.00 77 1017.4
20260504024050 64 0 0.0 3.0 0.00 0.00 0.00 76 1017.3
20260504023551 64 167 0.0 3.0 0.00 0.00 0.00 75 1017.4
20260504023101 64 158 0.0 1.0 0.00 0.00 0.00 74 1017.3
20260504022552 65 0 0.0 1.0 0.00 0.00 0.00 74 1017.3
20260504022049 65 0 0.0 1.0 0.00 0.00 0.00 73 1017.3
20260504021554 65 0 0.0 0.0 0.00 0.00 0.00 72 1017.3
20260504021049 65 0 0.0 0.0 0.00 0.00 0.00 71 1017.3
20260504020555 66 0 0.0 0.0 0.00 0.00 0.00 71 1017.3
20260504020101 66 0 0.0 0.0 0.00 0.00 0.00 71 1017.3
20260504015551 66 0 0.0 0.0 0.00 0.00 0.00 70 1017.1
20260504015049 67 0 0.0 0.0 0.00 0.00 0.00 69 1017.1
20260504014601 67 0 0.0 0.0 0.00 0.00 0.00 69 1017.1
20260504014050 68 0 0.0 0.0 0.00 0.00 0.00 68 1017.1
20260504013551 68 0 0.0 0.0 0.00 0.00 0.00 68 1017.0
20260504013113 69 0 0.0 0.0 0.00 0.00 0.00 67 1016.9
20260504012551 70 0 0.0 0.0 0.00 0.00 0.00 68 1016.9
20260504012051 70 0 0.0 0.0 0.00 0.00 0.00 68 1016.8
20260504011600 71 0 0.0 0.0 0.00 0.00 0.00 68 1016.9
20260504011049 71 0 0.0 0.0 0.00 0.00 0.00 66 1016.8
20260504010550 71 0 0.0 0.0 0.00 0.00 0.00 66 1016.7
20260504010057 72 0 0.0 1.0 0.00 0.00 0.00 63 1016.8
20260504005553 72 0 0.0 2.0 0.00 0.00 0.00 61 1016.7
20260504005055 72 0 0.0 2.0 0.00 0.00 0.00 62 1016.7
20260504004558 73 0 0.0 0.0 0.00 0.00 0.00 62 1016.5
20260504004053 73 0 0.0 0.0 0.00 0.00 0.00 61 1016.5
20260504003552 73 0 0.0 0.0 0.00 0.00 0.00 60 1016.5
20260504003105 73 0 0.0 2.0 0.00 0.00 0.00 59 1016.5
20260504002551 73 0 0.0 2.0 0.00 0.00 0.00 59 1016.5
20260504002050 73 0 0.0 4.0 0.00 0.00 0.00 59 1016.6
20260504001607 73 198 1.0 4.0 0.00 0.00 0.00 58 1016.7
20260504001050 73 198 1.0 4.0 0.00 0.00 0.00 58 1016.6
20260504000549 73 208 1.0 4.0 0.00 0.00 0.00 57 1016.8
20260504000122 74 216 1.0 5.0 0.00 0.00 0.00 56 1016.7
20260503235550 74 208 2.0 6.0 0.00 0.00 0.00 54 1016.6
20260503235050 75 196 3.0 7.0 0.00 0.00 0.00 53 1016.7
20260503234556 75 209 3.0 7.0 0.00 0.00 0.00 54 1016.7
20260503234050 75 196 4.0 7.0 0.00 0.00 0.00 52 1016.7
20260503233553 75 193 1.0 6.0 0.00 0.00 0.00 53 1016.7
20260503233052 76 192 3.0 7.0 0.00 0.00 0.00 52 1016.7
20260503232549 76 196 2.0 9.0 0.00 0.00 0.00 53 1016.7
20260503232049 76 228 5.0 9.0 0.00 0.00 0.00 49 1016.7
20260503231552 76 188 2.0 8.0 0.00 0.00 0.00 52 1016.7
20260503231052 76 200 5.0 8.0 0.00 0.00 0.00 52 1016.7
20260503230550 77 223 1.0 6.0 0.00 0.00 0.00 50 1016.7
20260503230052 77 200 3.0 6.0 0.00 0.00 0.00 48 1016.8
20260503225550 77 226 0.0 5.0 0.00 0.00 0.00 48 1016.7
20260503225052 77 159 2.0 8.0 0.00 0.00 0.00 49 1016.8
20260503224554 77 250 3.0 9.0 0.00 0.00 0.00 49 1016.9
20260503224051 77 212 2.0 9.0 0.00 0.00 0.00 49 1016.8
20260503223550 77 188 4.0 9.0 0.00 0.00 0.00 48 1016.9
20260503223053 77 216 3.0 8.0 0.00 0.00 0.00 49 1017.0
20260503222554 78 191 2.0 10.0 0.00 0.00 0.00 47 1017.0
20260503222049 78 308 2.0 10.0 0.00 0.00 0.00 48 1017.1
20260503221558 78 184 5.0 9.0 0.00 0.00 0.00 46 1017.0
20260503221049 78 212 2.0 9.0 0.00 0.00 0.00 48 1017.2
20260503220550 78 233 3.0 10.0 0.00 0.00 0.00 48 1017.3
20260503220053 78 184 5.0 10.0 0.00 0.00 0.00 47 1017.3
20260503215552 78 191 1.0 4.0 0.00 0.00 0.00 50 1017.3
20260503215050 77 0 0.0 7.0 0.00 0.00 0.00 46 1017.5
20260503214553 76 216 1.0 9.0 0.00 0.00 0.00 52 1017.6
20260503214052 76 183 3.0 9.0 0.00 0.00 0.00 48 1017.7
20260503213552 78 205 3.0 9.0 0.00 0.00 0.00 46 1017.8
20260503213050 78 200 3.0 9.0 0.00 0.00 0.00 50 1017.9
20260503212550 78 243 4.0 9.0 0.00 0.00 0.00 45 1018.0
20260503212049 77 211 3.0 8.0 0.00 0.00 0.00 46 1018.1
20260503211554 76 194 1.0 9.0 0.00 0.00 0.00 49 1018.1
20260503211049 76 187 4.0 10.0 0.00 0.00 0.00 46 1018.2
20260503210552 77 184 5.0 10.0 0.00 0.00 0.00 47 1018.2
20260503210054 78 213 2.0 9.0 0.00 0.00 0.00 44 1018.3
20260503205550 78 184 2.0 9.0 0.00 0.00 0.00 44 1018.4
20260503205053 78 275 2.0 9.0 0.00 0.00 0.00 46 1018.5
20260503204557 77 246 4.0 17.0 0.00 0.00 0.00 46 1018.5
20260503204050 78 244 5.0 17.0 0.00 0.00 0.00 43 1018.6
20260503203552 77 277 5.0 17.0 0.00 0.00 0.00 46 1018.6
20260503203051 77 286 1.0 7.0 0.00 0.00 0.00 44 1018.7
20260503202549 79 340 2.0 9.0 0.00 0.00 0.00 45 1018.8
20260503202049 77 267 5.0 9.0 0.00 0.00 0.00 50 1018.7
20260503201553 76 189 4.0 8.0 0.00 0.00 0.00 48 1019.0
20260503201050 76 0 3.0 7.0 0.00 0.00 0.00 45 1019.1
20260503200552 76 219 1.0 7.0 0.00 0.00 0.00 48 1019.1
20260503200058 76 285 2.0 13.0 0.00 0.00 0.00 46 1019.2
20260503195550 78 194 5.0 13.0 0.00 0.00 0.00 46 1019.4
20260503195050 77 208 3.0 12.0 0.00 0.00 0.00 47 1019.4
20260503194553 77 229 2.0 11.0 0.00 0.00 0.00 49 1019.5
20260503194050 76 267 2.0 9.0 0.00 0.00 0.00 46 1019.6
20260503193550 77 259 4.0 9.0 0.00 0.00 0.00 44 1019.6
20260503193104 76 209 3.0 8.0 0.00 0.00 0.00 46 1019.8
20260503192549 77 259 2.0 8.0 0.00 0.00 0.00 51 1019.8
20260503192049 77 270 3.0 10.0 0.00 0.00 0.00 52 1019.9
20260503191558 77 259 4.0 10.0 0.00 0.00 0.00 48 1020.0
20260503191051 77 325 3.0 12.0 0.00 0.00 0.00 51 1020.0
20260503190553 76 321 3.0 12.0 0.00 0.00 0.00 45 1020.1
20260503185552 76 233 3.0 9.0 0.00 0.00 0.00 51 1020.1